"Pseudo-MPEC" for C28UPR2

Created 2020 Feb 27 19:07:09 UT using Find_Orb

Click here for an explanation of pseudo-MPECs

 
 Astrometry: 
     C28UPR2  C2020 02 26.14966 09 18 57.21 +12 13 48.7    ~2Q4M 19.5 GVNEOCPG96
     C28UPR2  C2020 02 26.15521 09 18 53.84 +12 12 31.4    ~2Q4M 19.6 GVNEOCPG96
     C28UPR2  C2020 02 26.16632 09 18 47.10 +12 09 56.3    ~2Q4M 19.8 GVNEOCPG96
     C28UPR2  C2020 02 26.25219 09 17 52.14 +11 49 16.2    ~2Q6q 20.2 GVNEOCP703
     C28UPR2  C2020 02 26.25751 09 17 48.63 +11 47 54.5    ~2Q6q 20.2 GVNEOCP703
     C28UPR2  C2020 02 26.26284 09 17 45.03 +11 46 34.0    ~2Q6q       VNEOCP703
     C28UPR2  C2020 02 26.26818 09 17 41.56 +11 45 15.1    ~2Q6q 19.0 GVNEOCP703
     C28UPR2  C2020 02 26.27311 09 17 38.27 +11 44 01.9    ~2Q6q       VNEOCPI52
     C28UPR2  C2020 02 26.27367 09 17 37.86 +11 43 51.7    ~2Q6q 19.8 GVNEOCPI52
     C28UPR2  C2020 02 26.27423 09 17 37.50 +11 43 43.2    ~2Q6q 20.0 GVNEOCPI52
     C28UPR2  C2020 02 26.27479 09 17 37.10 +11 43 34.6    ~2Q6q 19.9 GVNEOCPI52
     C28UPR2  C2020 02 26.75283 09 12 41.10 +09 21 20.6    ~2QIb 19.0 VVNEOCP033
     C28UPR2  C2020 02 26.75357 09 12 40.52 +09 21 05.4    ~2QIb 18.8 VVNEOCP033
     C28UPR2 KC2020 02 26qO*WbRi\cnopLl.tMAg0RWNm8aKVrMQV_n/NPLwFwI8+C?MdPYA$204
     C28UPR2 KC2020 02 26L!ph'jxTuUmiv@Ds@AB2'?R.*\g%`n[V\a7:FUo9Eg5?1._-Pq4JK63
     C28UPR2 KC2020 02 26#vT_c3E1nVG0mMJm]s-(:BG%+`2[1_5v9N:'NKO^s_+cy]6,?*N@K63
     C28UPR2 KC2020 02 260YZBolwT[sH/g)]mXAfM@[LXLXQV`rft,cCx`QY3SC!\n;43O.HUK63
     C28UPR2 KC2020 02 26@tgr+'DK!P4x)t*.]_ct@WiBEVKS$tSmF^Nj/Ptx(#r2@ZJYwxy.204
     C28UPR2 KC2020 02 26guSCFaG5TM[8%,ShWL!Qa%d8#Gj9Tg:;htAstrometry*Ce5XD7dZ84
     C28UPR2 KC2020 02 26xkR/r-:32$KiBr36M*BiXM2ZlG8k9VC^/R0plC]JoLGA`7H:Ak)yZ84
     C28UPR2 KC2020 02 26roZqredacted;L/0)RHl^Yb*E/KLVm2m;Lh`0AX%UQv(:`1Gc#+BZ84
     C28UPR2 KC2020 02 26.93852109 10 00.58 +08 14 24.1    ~2QNM 18.8 GVNEOCPC95
     C28UPR2 KC2020 02 26.94887509 09 50.67 +08 10 21.2    ~2QNM 18.8 GVNEOCPC95
     C28UPR2 KC2020 02 26?jxeyJ7/q#2)DM9e+sA6IIQ04xsk)o0MmOLq@[hC7UM5(@!gmv$=J04
     C28UPR2 KC2020 02 26yUM3-X6IBrjh806qec-G].iQ^Gn]VuJcO\Sx$qnv6iBG%9fBFhY.J04
     C28UPR2 KC2020 02 26W0lXX)4--Q6i*hnV]DrM3:tl-a4T)H`XcrkF,RT]iCA1kwHjovWcJ04
     C28UPR2 KC2020 02 27pJq18%:`uTs^L+2p9I96k%(BMrlIOU@SQl_F,[%sMw$_Hq/;.T@jX31
     C28UPR2 KC2020 02 27vnbB=kR]EXikr5QSi1L.+VVV?LdMlT#`pFXbx;aV^,(M][=HbYWGX31
     C28UPR2 KC2020 02 27ig#b9h5`v9Fm_$/]tJm2Vv`m1#M6Mt:xh.@Xnqn/0MrG!Bn3xDsFX31
     C28UPR2  C2020 02 27.12900 09 07 25.41 +06 55 45.0    ~2R3M 18.4 GVNEOCPI52
     C28UPR2  C2020 02 27.12919 09 07 25.22 +06 55 39.9    ~2R3M 18.1 GVNEOCPI52
     C28UPR2  C2020 02 27.12938 09 07 25.02 +06 55 35.5    ~2R3M 18.0 GVNEOCPI52
     C28UPR2  C2020 02 27.12956 09 07 24.83 +06 55 29.9    ~2R3M 18.4 GVNEOCPI52
     C28UPR2 KC2020 02 27Vvb)35$m)V57vm_lT('tO(qDclick;ohioxeW\RF`y*p5ul\[8U5734
     C28UPR2 KC2020 02 27n7pCgR:eGc-6Y,Vjhbk(buRQpxgQ6v@+4jNUBh@jQ'0g\!/yFkaA734
     C28UPR2 KC2020 02 27ClkAYCXV=cD.ky*Y?tdUOhk*wjPiQq2wbTW_fgW)1et0o-)Dq)yF734
     C28UPR2 KC2020 02 27qjPI[8fw$d:2uSherexb0[MOU7Eb@CZIBZuf1xG7for6hin,]['6734
     C28UPR2 KC2020 02 273CGopvJ-explanationug'G*:[%'l#(^mpM0w]0G%vx*]sqdlro`711
     C28UPR2 KC2020 02 27SNgF,J^y@1owulZuWaw\7u@OH79ncbUqkvqwFUPAfF;8Rjo9g,+L711
     C28UPR2  C2020 02 27.18939 09 06 19.14 +06 28 12.1    ~2R5M 19.0 GVNEOCPG96
     C28UPR2 KC2020 02 274?'3'jBx[?IX?$.`j.$_!WPJJqV/4]CSUK@6oc5*\^!=$b-3@G4Q711
     C28UPR2  C2020 02 27.19508 09 06 12.68 +06 25 32.3    ~2R5M 18.7 GVNEOCPG96
     C28UPR2  C2020 02 27.20077 09 06 06.17 +06 22 52.0    ~2R5M 18.7 GVNEOCPG96
     C28UPR2  C2020 02 27.20644 09 05 59.65 +06 20 10.9    ~2R5M 19.1 GVNEOCPG96
     C28UPR2 KC2020 02 27w^Vnoe(,c5ah0w]Mfg/%)dB-L)tGP.xMGTBt$H7nc%$`QM]:Rf$tL04
     C28UPR2 KC2020 02 27M+#RT0*[19W'3\)J*l)bSEmZ(-2He`OJ=QKa-'d/g8k^_tFls9L!L04
     C28UPR2 KC2020 02 27F8#fxR6o^mATT([.ljuG]f+v:Rh3E:hFRk2*wHy[o@5IHKWo;,pRL04

Station data:
(033) Karl Schwarzschild Observatory, Tautenburg  (N50.980140 E11.711240)
   Germany. 1.3-m Schmidt.
(204) Schiaparelli Observatory  (N45.867933 E8.770800)  Italy.  Observer L.
   Buzzi. 0.60-m f/4.64 Newtonian + CCD.
(703) Catalina Sky Survey  (N32.417006 W110.732640)  US/Arizona.  Observers
   T. A. Pruyne, B. M. Africano, E. J. Christensen, G. A. Farneth, D. C.
   Fuls, A. R. Gibbs, A. D. Grauer, H. Gröller, J. A. Johnson, R. A.
   Kowalski, S. M. Larson, G. J. Leonard, D. Rankin, R. L. Seaman, F. C.
   Shelly. 0.68 m Schmidt + 10K CCD.
(711) McDonald Observatory, Fort Davis  (N30.671481 W104.021500)  US/Texas.
   0.76-m f/3.0 reflector.
(734) Farpoint Observatory, Eskridge  (N38.890107 W96.001400)  US/Kansas.
   Observer G. Hug. 0.69-m reflector + CCD.
(C95) SATINO Remote Observatory, Haute Provence  (N43.932042 E5.712390)
   France. 0.60-m f/3.2 Newtonian reflector + CCD.
(G96) Mt. Lemmon Survey  (N32.442754 W110.788720)  US/Arizona.  Observers T.
   A. Pruyne, B. M. Africano, E. J. Christensen, G. A. Farneth, D. C. Fuls,
   A. R. Gibbs, A. D. Grauer, H. Gröller, J. A. Johnson, R. A. Kowalski, S.
   M. Larson, G. J. Leonard, D. Rankin, R. L. Seaman, F. C. Shelly. 1.5-m
   reflector + 10K CCD.
(I52) Steward Observatory, Mt. Lemmon Station  (N32.442547 W110.788920)
   US/Arizona.  Observers T. A. Pruyne, B. M. Africano, E. J. Christensen, G.
   A. Farneth, D. C. Fuls, A. R. Gibbs, A. D. Grauer, H. Gröller, J. A.
   Johnson, R. A. Kowalski, S. M. Larson, G. J. Leonard, D. Rankin, R. L.
   Seaman, F. C. Shelly. 1.0-m reflector + CCD.
(J04) ESA Optical Ground Station, Tenerife  (N28.300924 W16.511830)  Canary
   Islands (Spain).  Observer D. Abreu. Measurers M. Micheli, D. Koschny, E.
   Schwab, M. Busch, A. Knöfel. 1.0-m f/4.4 reflector + CCD.
(K63) G. Pascoli Observatory, Castelvecchio Pascoli  (N44.082410 E10.462000)
   Italy.
(L04) ROASTERR-1 Observatory, Cluj-Napoca  (N46.820954 E23.596400)  Romania.
(X31) Galileo Galilei Observatory, Oro Verde  (S31.823022 W60.520660)
   Argentina.
(Z84) Calar Alto-Schmidt  (N37.224049 W2.548210)  Spain.

Orbital elements:  C28UPR2
   Perihelion 2020 Apr 6.193384 +/- 0.00953 TT =  4:38:28 (JD 2458945.693384)
Epoch 2020 Feb 27.0 TT = JDT 2458906.5   Earth MOID: 0.0079   Ju: 0.8138
M 350.57070409 +/- 0.028            Ma: 0.0185                AutoNEOCP
n   0.24058387 +/- 0.00068          Peri.  240.35119 +/- 0.0026
a   2.56030504 +/- 0.00483          Node   335.12848 +/- 0.00051
e   0.6807885 +/- 0.000645          Incl.    5.43284 +/- 0.0039
P   4.10                   H 26.3   G  0.15   U  7.8  
q 0.81727857 +/- 0.00011    Q 4.30333150 +/- 0.00975
From 47 observations 2020 Feb. 26-27 (39.0 hr); mean residual 0".59
Residuals in arcseconds: 
200226 G96  .12+  .14+    200226 K63  1.3-  .28-    200227 I52  .31+  .14-    
200226 G96  .23-  .11-    200226 204  .10+  .38+    200227 734  .18-  1.1-    
200226 G96  .15+  .05-    200226 Z84  .53+  .24+    200227 734  2.0-  .95-    
200226 703  .15-  1.4+    200226 Z84  .28+  .34+    200227 734  .59+  1.3+    
200226 703  .11+  .84-    200226 Z84  .23+  .14+    200227 734  .27+  .91-    
200226 703  .70-  1.4-    200226 C95  .30-  .39-    200227 711  .22-  .14-    
200226 703  .66+  .12+    200226 C95  .05-  .32-    200227 711  1.4-  2.3+    
200226 I52  .53+  1.6+    200226 J04  .27+  .17+    200227 G96  .26-  .25-    
200226 I52  .01+  .16-    200226 J04  .30+  .25+    200227 711  .45+  .18+    
200226 I52  .24+  .17-    200226 J04  .32+  .30+    200227 G96  .03+  .02-    
200226 I52  .13-  .29-    200227 X31  .78+  .24-    200227 G96  .14+  .47+    
200226 033  .46+  .11+    200227 X31  .14+  .08-    200227 G96  .31+  .36+    
200226 033  .53+  .04-    200227 X31  .51-  .65-    200227 L04  .22+  .04-    
200226 204  .17-  .10-    200227 I52  .13+  .01+    200227 L04  .07-  .19-    
200226 K63  .35-  .78-    200227 I52  .29+  .02-    200227 L04  .32+  .14-    
200226 K63  .76-  .11-    200227 I52  .30+  .65+    

Ephemerides (geocentric):
Date (UTC) HH   RA              Dec         delta   r     elong  mag " sig PA
---- -- -- --  -------------   -----------  ------ ------ -----  --- ---- ---
2020 02 27 19  08 53 13.059   +00 25 59.43  .01701 1.0054 152.2 18.7 .318 152
2020 02 27 20  08 52 02.723   -00 07 15.93  .01668 1.0051 151.7 18.6 .334 154
2020 02 27 21  08 50 49.539   -00 41 52.23  .01635 1.0047 151.2 18.6 .351 155
2020 02 27 22  08 49 33.334   -01 17 53.86  .01602 1.0044 150.7 18.6 .370 157
2020 02 27 23  08 48 13.922   -01 55 25.49  .01569 1.0040 150.1 18.5 .390 158
2020 02 28 00  08 46 51.100   -02 34 32.03  .01537 1.0037 149.6 18.5 .412 160
2020 02 28 01  08 45 24.650   -03 15 18.70  .01505 1.0033 148.9 18.5 .436 162
2020 02 28 02  08 43 54.335   -03 57 51.00  .01473 1.0030 148.3 18.5 .462 163
2020 02 28 03  08 42 19.896   -04 42 14.74  .01442 1.0026 147.6 18.4 .491 165
2020 02 28 04  08 40 41.053   -05 28 36.03  .01410 1.0023 146.9 18.4 .522 166
2020 02 28 05  08 38 57.502   -06 17 01.29  .01379 1.0019 146.1 18.4 .556 168
2020 02 28 06  08 37 08.908   -07 07 37.23  .01349 1.0016 145.3 18.3 .593 170
2020 02 28 07  08 35 14.909   -08 00 30.85  .01319 1.0012 144.5 18.3 .634 171
2020 02 28 08  08 33 15.106   -08 55 49.44  .01289 1.0009 143.6 18.3 .678 173
2020 02 28 09  08 31 09.062   -09 53 40.52  .01260 1.0005 142.7 18.3 .726 174
2020 02 28 10  08 28 56.299   -10 54 11.78  .01231 1.0002 141.7 18.2 .778 176
2020 02 28 11  08 26 36.291   -11 57 31.10  .01203 0.9998 140.7 18.2 .835 177
2020 02 28 12  08 24 08.457   -13 03 46.37  .01175 0.9995 139.6 18.2 .897 179
2020 02 28 13  08 21 32.159   -14 13 05.46  .01148 0.9991 138.4 18.2 .964   0
2020 02 28 14  08 18 46.690   -15 25 36.08  .01122 0.9988 137.2 18.2 1.04   2
2020 02 28 15  08 15 51.271   -16 41 25.57  .01096 0.9984 135.9 18.2 1.12   3
2020 02 28 16  08 12 45.036   -18 00 40.76  .01071 0.9981 134.6 18.1 1.20   5
2020 02 28 17  08 09 27.027   -19 23 27.70  .01047 0.9977 133.2 18.1 1.29   6
2020 02 28 18  08 05 56.179   -20 49 51.34  .01023 0.9974 131.7 18.1 1.39   7
2020 02 28 19  08 02 11.309   -22 19 55.25  .01001 0.9970 130.1 18.1 1.49   9
2020 02 28 20  07 58 11.101   -23 53 41.17  .00979 0.9967 128.5 18.1 1.60  10
2020 02 28 21  07 53 54.090   -25 31 08.58  .00959 0.9963 126.7 18.1 1.71  11
2020 02 28 22  07 49 18.647   -27 12 14.18  .00939 0.9960 124.9 18.1 1.83  13
2020 02 28 23  07 44 22.959   -28 56 51.39  .00921 0.9956 123.0 18.1 1.96  14
2020 02 29 00  07 39 05.012   -30 44 49.70  .00904 0.9953 121.1 18.1 2.09  15
2020 02 29 01  07 33 22.572   -32 35 54.17  .00888 0.9950 119.0 18.2 2.22  17
2020 02 29 02  07 27 13.170   -34 29 44.80  .00874 0.9946 116.9 18.2 2.35  18
2020 02 29 03  07 20 34.088   -36 25 56.01  .00861 0.9943 114.7 18.2 2.49  20
2020 02 29 04  07 13 22.355   -38 23 56.25  .00849 0.9939 112.5 18.3 2.62  21
2020 02 29 05  07 05 34.752   -40 23 07.66  .00840 0.9936 110.1 18.3 2.75  23
2020 02 29 06  06 57 07.839   -42 22 45.96  .00831 0.9932 107.8 18.4 2.87  25
2020 02 29 07  06 47 57.998   -44 22 00.56  .00825 0.9929 105.3 18.4 2.99  27
2020 02 29 08  06 38 01.529   -46 19 54.93  .00820 0.9925 102.9 18.5 3.09  29
2020 02 29 09  06 27 14.780   -48 15 27.27  .00817 0.9922 100.4 18.6 3.19  31
2020 02 29 10  06 15 34.354   -50 07 31.52  .00815 0.9919  97.9 18.7 3.27  34
2020 02 29 11  06 02 57.382   -51 54 58.76  .00816 0.9915  95.4 18.8 3.34  36
2020 02 29 12  05 49 21.884   -53 36 39.01  .00818 0.9912  92.9 18.9 3.39  39
2020 02 29 13  05 34 47.209   -55 11 23.41  .00822 0.9908  90.4 19.0 3.43  42
2020 02 29 14  05 19 14.514   -56 38 06.83  .00828 0.9905  88.0 19.1 3.45  46
2020 02 29 15  05 02 47.231   -57 55 50.83  .00835 0.9901  85.5 19.2 3.45  49
2020 02 29 16  04 45 31.430   -59 03 46.69  .00844 .98980  83.2 19.3 3.44  53
2020 02 29 17  04 27 35.959   -60 01 18.52  .00854 .98945  80.9 19.5 3.42  57
2020 02 29 18  04 09 12.256   -60 48 05.74  .00867 .98911  78.6 19.6 3.38  61